INMARSAT 5-F1 (39476 NORAD) Tracking and Keplerian Element Data

This shows tracking and keplerian element data for the satellite.

Feedback or suggestion? Click here.




ElementValue
Catalog39476
NameINMARSAT 5-F1
Epoch Orbit4059
Epoch Day34.71919573
Epoch Year2025
RAAN79.8495
Inclination0.0266
Eccentricity5.04E-05
Argument of Perigee150.9662
Mean Anonmoly224.7965
Mean Motion1.00271362
Decay Rate3.2E-07
L11 39476U 13073A 25034.71919573 .00000032 00000+0 00000+0 0 9992
L22 39476 0.0266 79.8495 0000504 150.9662 224.7965 1.00271362 40590



Live tracking and technical data element details for INMARSAT 5-F1 (NORAD 39476). INMARSAT 5-F1 can be tracked NOW for your location showing map with azimuth and elevation plus other details from your city location.







IsCatalogInMostPopularTable: catalog: 39476, numindb: 442
Update: records affected: 1



GetName: 39476 INMARSAT 5-F1

Hit Count: updated at: Fri, 16 May 2025 10:16:36 GMT